Lid_Strength_Index
13 12 12 14 14 14 16 14 16 14 14 12 16 16 15 14 13 14 14 13 13 12 13 12 12 12 12 12 12 12 14 14 14 14 14 14 14 14 14 15 15 15 15 16
16 13 13 14 13 13 13 13 13 13 13 14 14 13 15 15 12 13 15 14 13 11 13 13 13 14 13 14 13 13 13 14 14 14 15 15 14 14 14 14 14 14 15 16
16 14 15 17 15 14 13 12 13 15 16 16 15 14 14 14 11 13 13 13 13 11 13 13 13 13 14 14 14 15 14 14 14 14 15 15 15 16 16 15 14 15 15 16
16 20 21 15 14 13 14 15 16 16 17 15 14 12 12 12 12 13 13 12 12 11 13 13 12 13 13 14 16 16 15 15 15 15 16 15 15 15 15 15 15 15 15 15
18 20 17 15 14 14 15 17 15 16 14 13 12 13 14 12 12 12 12 11 11 11 12 12 13 13 13 13 15 15 15 15 16 17 17 15 16 16 15 15 15 15 15 15
21 23 28 17 14 13 13 21 16 17 17 16 14 18 16 13 12 11 11 10 11 11 12 12 12 12 13 13 15 15 15 15 16 17 17 16 16 16 15 16 16 15 16 15
17 18 21 16 15 13 23 20 16 15 14 14 15 13 12 11 11 11 11 11 11 12 13 13 13 13 13 14 15 14 15 15 16 17 17 17 16 15 16 16 16 17 17 16
29 27 24 14 14 17 15 13 13 13 12 12 11 10 10 10 11 11 12 11 11 12 13 12 12 13 14 15 14 15 16 17 17 18 18 17 17 16 15 16 17 17 17 17
19 20 13 12 12 10 10 11 11 12 11 11 11 10 10 11 12 12 12 12 12 13 13 13 13 13 15 15 15 16 18 18 18 18 19 18 19 18 16 14 16 16 17 17
15 13 12 11 10 10 10 10 10 10 10 10 11 11 12 13 12 12 12 12 12 13 14 15 14 14 14 15 15 18 19 20 20 20 20 20 19 18 17 15 15 16 16 17
15 12 11 11 10 9 9 9 10 11 11 12 12 12 12 13 13 12 13 13 14 15 15 16 15 16 16 17 18 19 20 20 21 21 21 21 20 19 17 15 14 15 16 16
15 11 11 11 9 10 10 10 12 13 13 12 12 13 13 14 13 14 15 15 16 17 18 18 19 19 19 19 20 21 22 22 22 22 22 22 22 21 17 15 13 11 12 13
11 9 9 9 12 12 12 13 13 14 13 15 14 14 14 16 16 16 17 18 19 20 20 21 22 23 22 22 22 23 24 23 23 23 23 23 22 22 22 18 13 11 11 12
8 12 11 10 12 14 13 14 14 15 15 15 15 16 17 18 18 19 20 20 21 22 23 23 24 24 23 23 24 24 25 24 24 24 24 23 22 22 21 20 19 16 13 12
14 14 14 14 14 15 15 16 17 17 17 17 17 18 19 20 21 21 21 22 22 22 24 25 26 27 25 25 25 25 25 25 25 24 24 23 22 22 20 20 19 16 15 14
16 16 16 17 17 17 18 19 19 19 18 19 20 20 21 21 23 23 23 22 23 27 27 28 28 26 25 25 25 25 24 24 23 23 23 23 22 21 21 20 18 16 16 15
18 20 21 22 20 20 20 19 19 19 20 21 22 22 23 24 24 24 23 21 23 26 26 26 26 24 24 23 23 23 23 22 22 22 22 22 22 21 20 18 16 15 15 14
20 20 20 21 22 21 21 20 21 21 22 22 23 24 25 26 25 24 22 22 24 25 25 25 25 24 23 23 22 22 21 20 20 20 20 21 20 19 18 17 15 15 15 14
23 23 22 21 22 22 23 23 23 23 23 24 26 26 25 25 23 23 23 24 25 26 25 25 23 24 24 22 21 22 22 22 20 19 17 17 18 17 16 15 15 15 14 13
24 24 24 24 24 25 25 24 25 25 26 28 29 27 26 24 23 23 24 25 24 24 24 24 24 25 23 23 22 23 23 22 22 21 19 18 18 17 16 16 16 18 18 19
29 27 27 26 26 26 27 26 27 28 28 29 28 26 26 23 23 24 25 25 23 23 23 23 24 23 23 23 23 24 24 23 23 22 22 21 21 21 21 21 21 21 21 21
31 32 29 28 29 29 29 30 31 30 30 28 26 25 24 24 25 24 24 25 24 23 23 24 23 22 23 23 24 25 25 25 25 24 24 24 23 23 23 23 23 22 23 23
33 34 30 30 30 30 31 31 30 31 28 26 25 24 24 24 24 26 26 24 24 24 24 24 22 22 24 25 25 25 26 26 25 25 25 25 25 24 24 24 24 23 23 23
37 36 35 33 37 37 33 30 31 28 25 24 23 23 23 24 24 24 23 23 24 24 25 24 23 20 24 26 27 26 26 26 25 25 25 25 26 25 25 25 25 24 24 24
37 36 38 36 34 30 31 28 24 24 23 23 23 23 23 23 24 24 23 24 23 25 25 24 22 23 26 26 26 26 27 27 26 26 25 25 25 26 25 25 25 25 25 25
35 33 32 32 29 25 24 23 24 23 24 24 23 23 23 23 23 23 23 24 25 25 26 26 26 26 27 27 27 27 26 26 26 26 26 27 27 27 27 26 26 25 25 25
34 27 28 26 24 25 25 24 24 25 24 24 24 24 23 24 24 24 25 26 26 26 27 27 26 26 27 27 27 27 27 27 26 27 27 27 26 26 26 26 27 26 26 26